Location: Haram ta Haram Freeway
(35.0583°N, 51.4202°E)
Time: 05:04:09
(UTC+04:30)

LightSail 2 - Visible Passes

Search period start: 02 April 2020 00:00
Search period end: 12 April 2020 00:00
Orbit: 693 x 726 km, 24.0° (Epoch: 31 March)

Date Brightness Start Highest point End Pass type
(mag) Time Alt. Az. Time Alt. Az. Time Alt. Az.
04 Apr 7.3 06:13:50 10° SSW 06:16:28 14° SSE 06:19:07 10° SE visible
05 Apr 7.4 05:15:59 10° S 05:17:27 11° SSE 05:18:56 10° SE visible
06 Apr 7.0 05:59:42 10° SSW 06:03:06 18° S 06:06:30 10° SE visible
07 Apr 7.0 05:03:06 15° S 05:04:02 15° SSE 05:06:58 10° SE visible
08 Apr 6.7 05:46:17 11° SW 05:49:43 21° S 05:53:29 10° SE visible
09 Apr 6.8 04:50:35 19° S 04:50:38 19° S 04:54:10 10° SE visible
10 Apr 6.6 05:33:44 16° SW 05:36:19 23° S 05:40:13 10° SE visible
11 Apr 6.7 04:38:01 21° SSE 04:38:01 21° SSE 04:41:02 10° SE visible
